Time,TemperatureF,DewpointF,PressureIn,WindDirection,WindDirectionDegrees,WindSpeedMPH,WindSpeedGustMPH,Humidity,HourlyPrecipIn,Conditions,Clouds,dailyrainin,SoftwareType,DateUTC
2013-06-16 00:01:00,57.1,54.5,30.02,West,275,0.0,0.0,91,0.00,,---,0.00,VWS V14.01,2013-06-16 07:01:00,
2013-06-16 00:06:00,56.9,54.3,30.02,West,275,0.0,0.0,91,0.00,,---,0.00,VWS V14.01,2013-06-16 07:06:00,
2013-06-16 00:11:00,56.8,53.9,30.02,West,275,0.0,0.0,90,0.00,,---,0.00,VWS V14.01,2013-06-16 07:11:00,
2013-06-16 00:16:00,56.5,53.9,30.02,West,275,0.0,0.0,91,0.00,,---,0.00,VWS V14.01,2013-06-16 07:16:00,
2013-06-16 00:21:00,56.4,53.8,30.02,West,275,0.0,0.0,91,0.00,,---,0.00,VWS V14.01,2013-06-16 07:21:00,
2013-06-16 00:26:00,56.1,53.5,30.02,West,275,0.0,0.0,91,0.00,,---,0.00,VWS V14.01,2013-06-16 07:26:00,
2013-06-16 00:30:00,56.0,53.7,30.02,West,275,0.0,0.0,92,0.00,,---,0.00,VWS V14.01,2013-06-16 07:30:00,
2013-06-16 00:35:00,56.1,53.8,30.02,West,275,0.0,0.0,92,0.00,,---,0.00,VWS V14.01,2013-06-16 07:35:00,
2013-06-16 00:40:00,56.1,53.8,30.02,West,275,0.0,0.0,92,0.00,,---,0.00,VWS V14.01,2013-06-16 07:40:00,
2013-06-16 00:45:00,56.1,53.8,30.02,West,275,0.0,0.0,92,0.00,,---,0.00,VWS V14.01,2013-06-16 07:45:00,
2013-06-16 00:50:00,56.0,53.7,30.02,West,275,0.0,0.0,92,0.00,,---,0.00,VWS V14.01,2013-06-16 07:50:00,
2013-06-16 00:55:00,56.0,54.0,30.02,West,275,0.0,0.0,93,0.00,,---,0.00,VWS V14.01,2013-06-16 07:55:00,
2013-06-16 01:00:00,55.9,53.6,30.02,West,275,0.0,0.0,92,0.00,,---,0.00,VWS V14.01,2013-06-16 08:00:00,
2013-06-16 01:05:00,55.8,53.5,30.02,West,275,0.0,0.0,92,0.00,,---,0.00,VWS V14.01,2013-06-16 08:05:00,
2013-06-16 01:10:00,55.7,53.4,30.02,West,275,0.0,0.0,92,0.00,,---,0.00,VWS V14.01,2013-06-16 08:10:00,
2013-06-16 01:15:00,55.5,53.2,30.02,West,275,0.0,0.0,92,0.00,,---,0.00,VWS V14.01,2013-06-16 08:15:00,
2013-06-16 01:20:00,55.5,53.5,30.02,West,275,0.0,0.0,93,0.00,,---,0.00,VWS V14.01,2013-06-16 08:20:00,
2013-06-16 01:25:00,55.5,53.5,30.02,West,275,0.0,0.0,93,0.00,,---,0.00,VWS V14.01,2013-06-16 08:25:00,
2013-06-16 01:30:00,55.5,53.5,30.02,West,275,0.0,0.0,93,0.00,,---,0.00,VWS V14.01,2013-06-16 08:30:00,
2013-06-16 01:35:00,55.7,54.0,30.02,West,275,0.0,0.0,94,0.00,,---,0.00,VWS V14.01,2013-06-16 08:35:00,
2013-06-16 01:40:00,56.1,54.4,30.02,West,275,0.0,0.0,94,0.00,,---,0.00,VWS V14.01,2013-06-16 08:40:00,
2013-06-16 01:45:00,56.6,55.2,30.02,West,275,0.0,0.0,95,0.00,,---,0.00,VWS V14.01,2013-06-16 08:45:00,
2013-06-16 01:50:00,56.8,55.1,30.02,West,275,0.0,0.0,94,0.00,,---,0.00,VWS V14.01,2013-06-16 08:50:00,
2013-06-16 01:55:00,57.1,55.7,30.02,West,275,0.0,0.0,95,0.00,,---,0.00,VWS V14.01,2013-06-16 08:55:00,
2013-06-16 02:00:00,57.3,55.9,30.02,West,275,0.0,0.0,95,0.00,,---,0.00,VWS V14.01,2013-06-16 09:00:00,
2013-06-16 02:05:00,57.5,56.1,30.02,West,275,0.0,0.0,95,0.00,,---,0.00,VWS V14.01,2013-06-16 09:05:00,
2013-06-16 02:10:00,57.6,55.9,30.02,West,275,0.0,0.0,94,0.00,,---,0.00,VWS V14.01,2013-06-16 09:10:00,
2013-06-16 02:15:00,57.7,56.0,30.02,West,275,0.0,0.0,94,0.00,,---,0.00,VWS V14.01,2013-06-16 09:15:00,
2013-06-16 02:20:00,57.7,56.0,30.02,West,275,0.0,0.0,94,0.00,,---,0.00,VWS V14.01,2013-06-16 09:20:00,
2013-06-16 02:25:00,57.7,56.0,30.02,West,275,0.0,0.0,94,0.00,,---,0.00,VWS V14.01,2013-06-16 09:25:00,
2013-06-16 02:30:00,57.7,56.0,30.02,West,275,0.0,0.0,94,0.00,,---,0.00,VWS V14.01,2013-06-16 09:30:00,
2013-06-16 02:35:00,57.7,56.0,30.02,West,275,0.0,0.0,94,0.00,,---,0.00,VWS V14.01,2013-06-16 09:35:00,
2013-06-16 02:40:00,57.8,56.1,30.02,West,275,0.0,0.0,94,0.00,,---,0.00,VWS V14.01,2013-06-16 09:40:00,
2013-06-16 02:45:00,57.8,56.1,30.02,West,275,0.0,0.0,94,0.00,,---,0.00,VWS V14.01,2013-06-16 09:45:00,
2013-06-16 02:50:00,57.8,56.1,30.02,West,275,0.0,0.0,94,0.00,,---,0.00,VWS V14.01,2013-06-16 09:50:00,
2013-06-16 02:55:00,57.9,55.9,30.02,West,275,0.0,0.0,93,0.00,,---,0.00,VWS V14.01,2013-06-16 09:55:00,
2013-06-16 03:00:00,58.1,56.1,30.02,West,275,0.0,0.0,93,0.00,,---,0.00,VWS V14.01,2013-06-16 10:00:00,
2013-06-16 03:05:00,58.2,55.9,30.02,West,271,0.0,1.0,92,0.00,,---,0.00,VWS V14.01,2013-06-16 10:05:00,
2013-06-16 03:10:00,58.4,56.1,30.02,West,271,0.0,1.0,92,0.00,,---,0.00,VWS V14.01,2013-06-16 10:10:00,
2013-06-16 03:15:00,58.6,56.0,30.02,West,271,0.0,1.0,91,0.00,,---,0.00,VWS V14.01,2013-06-16 10:15:00,
2013-06-16 03:20:00,58.7,56.1,30.02,West,271,0.0,1.0,91,0.00,,---,0.00,VWS V14.01,2013-06-16 10:20:00,
2013-06-16 03:25:00,58.8,56.2,30.02,West,271,0.0,1.0,91,0.00,,---,0.00,VWS V14.01,2013-06-16 10:25:00,
2013-06-16 03:30:00,58.9,56.0,30.02,West,271,0.0,0.0,90,0.00,,---,0.00,VWS V14.01,2013-06-16 10:30:00,
2013-06-16 03:35:00,58.9,56.0,30.02,West,271,0.0,0.0,90,0.00,,---,0.00,VWS V14.01,2013-06-16 10:35:00,
2013-06-16 03:40:00,58.9,56.0,30.02,West,271,0.0,0.0,90,0.00,,---,0.00,VWS V14.01,2013-06-16 10:40:00,
2013-06-16 03:45:00,59.0,56.1,30.02,West,271,0.0,0.0,90,0.00,,---,0.00,VWS V14.01,2013-06-16 10:45:00,
2013-06-16 03:50:00,59.0,56.1,30.02,West,271,0.0,0.0,90,0.00,,---,0.00,VWS V14.01,2013-06-16 10:50:00,
2013-06-16 03:55:00,59.0,56.1,30.02,West,271,0.0,0.0,90,0.00,,---,0.00,VWS V14.01,2013-06-16 10:55:00,
2013-06-16 04:00:00,58.9,56.0,30.02,West,271,0.0,0.0,90,0.00,,---,0.00,VWS V14.01,2013-06-16 11:00:00,
2013-06-16 04:05:00,58.9,56.0,30.02,West,271,0.0,0.0,90,0.00,,---,0.00,VWS V14.01,2013-06-16 11:05:00,
2013-06-16 04:10:00,58.9,56.0,30.02,NE,42,0.0,1.0,90,0.00,,---,0.00,VWS V14.01,2013-06-16 11:10:00,
2013-06-16 04:15:00,58.9,56.0,30.02,NE,42,0.0,2.0,90,0.00,,---,0.00,VWS V14.01,2013-06-16 11:15:00,
2013-06-16 04:20:00,58.9,55.7,30.02,ENE,64,0.0,2.0,89,0.00,,---,0.00,VWS V14.01,2013-06-16 11:20:00,
2013-06-16 04:25:00,58.9,55.7,30.02,ENE,64,0.0,2.0,89,0.00,,---,0.00,VWS V14.01,2013-06-16 11:25:00,
2013-06-16 04:30:00,58.9,55.7,30.02,ENE,64,0.0,0.0,89,0.00,,---,0.00,VWS V14.01,2013-06-16 11:30:00,
2013-06-16 04:35:00,58.9,55.7,30.02,ENE,64,0.0,0.0,89,0.00,,---,0.00,VWS V14.01,2013-06-16 11:35:00,
2013-06-16 04:40:00,58.9,55.7,30.02,ENE,64,0.0,0.0,89,0.00,,---,0.00,VWS V14.01,2013-06-16 11:40:00,
2013-06-16 04:45:00,58.9,55.7,30.03,ENE,64,0.0,0.0,89,0.00,,---,0.00,VWS V14.01,2013-06-16 11:45:00,
2013-06-16 04:50:00,58.8,55.6,30.02,ENE,64,0.0,0.0,89,0.00,,---,0.00,VWS V14.01,2013-06-16 11:50:00,
2013-06-16 04:55:00,58.7,55.5,30.02,ENE,64,0.0,0.0,89,0.00,,---,0.00,VWS V14.01,2013-06-16 11:55:00,
2013-06-16 05:00:00,58.7,55.8,30.03,NE,35,0.0,0.0,90,0.00,,---,0.00,VWS V14.01,2013-06-16 12:00:00,
2013-06-16 05:05:00,58.6,55.7,30.03,NE,34,0.0,1.0,90,0.00,,---,0.00,VWS V14.01,2013-06-16 12:05:00,
2013-06-16 05:10:00,58.6,55.7,30.03,NE,34,0.0,1.0,90,0.00,,---,0.00,VWS V14.01,2013-06-16 12:10:00,
2013-06-16 05:15:00,58.6,55.7,30.03,North,355,0.0,1.0,90,0.00,,---,0.00,VWS V14.01,2013-06-16 12:15:00,
2013-06-16 05:20:00,58.5,55.6,30.03,North,5,0.0,1.0,90,0.00,,---,0.00,VWS V14.01,2013-06-16 12:20:00,
2013-06-16 05:25:00,58.5,55.6,30.03,NNE,19,0.0,3.0,90,0.00,,---,0.00,VWS V14.01,2013-06-16 12:25:00,
2013-06-16 05:30:00,58.5,55.6,30.03,North,5,0.0,1.0,90,0.00,,---,0.00,VWS V14.01,2013-06-16 12:30:00,
2013-06-16 05:35:00,58.5,55.6,30.04,North,5,0.0,1.0,90,0.00,,---,0.00,VWS V14.01,2013-06-16 12:35:00,
2013-06-16 05:40:00,58.5,55.6,30.04,NNW,337,0.0,3.0,90,0.00,,---,0.00,VWS V14.01,2013-06-16 12:40:00,
2013-06-16 05:45:00,58.5,55.6,30.03,NE,37,0.0,3.0,90,0.00,,---,0.00,VWS V14.01,2013-06-16 12:45:00,
2013-06-16 05:50:00,58.4,55.5,30.04,NNE,23,0.0,3.0,90,0.00,,---,0.00,VWS V14.01,2013-06-16 12:50:00,
2013-06-16 05:55:00,58.4,55.5,30.04,NNE,23,1.0,3.0,90,0.00,,---,0.00,VWS V14.01,2013-06-16 12:55:00,
2013-06-16 06:00:00,58.5,55.6,30.04,NNE,23,0.0,1.0,90,0.00,,---,0.00,VWS V14.01,2013-06-16 13:00:00,
2013-06-16 06:05:00,58.5,55.6,30.04,NNE,23,0.0,1.0,90,0.00,,---,0.00,VWS V14.01,2013-06-16 13:05:00,
2013-06-16 06:10:00,58.5,55.6,30.04,NNE,23,0.0,1.0,90,0.00,,---,0.00,VWS V14.01,2013-06-16 13:10:00,
2013-06-16 06:15:00,58.5,55.6,30.04,NNE,23,0.0,1.0,90,0.00,,---,0.00,VWS V14.01,2013-06-16 13:15:00,
2013-06-16 06:20:00,58.6,55.7,30.04,NNE,23,0.0,1.0,90,0.00,,---,0.00,VWS V14.01,2013-06-16 13:20:00,
2013-06-16 06:25:00,58.6,55.7,30.04,NNE,23,0.0,1.0,90,0.00,,---,0.00,VWS V14.01,2013-06-16 13:25:00,
2013-06-16 06:30:00,58.6,55.7,30.04,NNE,23,0.0,1.0,90,0.00,,---,0.00,VWS V14.01,2013-06-16 13:30:00,
2013-06-16 06:35:00,58.7,55.8,30.05,NNE,23,0.0,1.0,90,0.00,,---,0.00,VWS V14.01,2013-06-16 13:35:00,
2013-06-16 06:40:00,58.8,55.9,30.05,NNE,23,0.0,1.0,90,0.00,,---,0.00,VWS V14.01,2013-06-16 13:40:00,
2013-06-16 06:45:00,58.9,56.0,30.05,NNE,23,0.0,1.0,90,0.00,,---,0.00,VWS V14.01,2013-06-16 13:45:00,
2013-06-16 06:50:00,59.0,56.1,30.05,NNE,23,0.0,1.0,90,0.00,,---,0.00,VWS V14.01,2013-06-16 13:50:00,
2013-06-16 06:55:00,59.1,56.2,30.05,NNE,23,0.0,1.0,90,0.00,,---,0.00,VWS V14.01,2013-06-16 13:55:00,
2013-06-16 07:00:00,59.1,55.9,30.05,NNE,23,0.0,1.0,89,0.00,,---,0.00,VWS V14.01,2013-06-16 14:00:00,
2013-06-16 07:05:00,59.2,56.0,30.06,NNE,23,0.0,1.0,89,0.00,,---,0.00,VWS V14.01,2013-06-16 14:05:00,
2013-06-16 07:10:00,59.4,56.2,30.06,NNE,23,0.0,1.0,89,0.00,,---,0.00,VWS V14.01,2013-06-16 14:10:00,
2013-06-16 07:15:00,59.5,56.3,30.06,NNE,23,0.0,1.0,89,0.00,,---,0.00,VWS V14.01,2013-06-16 14:15:00,
2013-06-16 07:20:00,59.6,56.0,30.06,NNE,23,0.0,1.0,88,0.00,,---,0.00,VWS V14.01,2013-06-16 14:20:00,
2013-06-16 07:25:00,59.7,56.2,30.06,NNE,23,0.0,1.0,88,0.00,,---,0.00,VWS V14.01,2013-06-16 14:25:00,
2013-06-16 07:30:00,59.9,56.3,30.06,NNE,23,0.0,0.0,88,0.00,,---,0.00,VWS V14.01,2013-06-16 14:30:00,
2013-06-16 07:35:00,60.2,56.3,30.07,NNE,23,0.0,1.0,87,0.00,,---,0.00,VWS V14.01,2013-06-16 14:35:00,
2013-06-16 07:40:00,60.3,56.4,30.07,NNE,23,0.0,1.0,87,0.00,,---,0.00,VWS V14.01,2013-06-16 14:40:00,
2013-06-16 07:45:00,60.3,56.1,30.07,NNE,23,0.0,1.0,86,0.00,,---,0.00,VWS V14.01,2013-06-16 14:45:00,
2013-06-16 07:50:00,60.4,56.2,30.07,NNE,23,0.0,1.0,86,0.00,,---,0.00,VWS V14.01,2013-06-16 14:50:00,
2013-06-16 07:55:00,60.6,56.4,30.07,East,99,0.0,1.0,86,0.00,,---,0.00,VWS V14.01,2013-06-16 14:55:00,
2013-06-16 08:00:00,60.8,56.3,30.07,East,99,0.0,0.0,85,0.00,,---,0.00,VWS V14.01,2013-06-16 15:00:00,
2013-06-16 08:05:00,60.9,56.4,30.07,ESE,113,0.0,1.0,85,0.00,,---,0.00,VWS V14.01,2013-06-16 15:05:00,
2013-06-16 08:10:00,61.2,56.7,30.08,East,89,0.0,1.0,85,0.00,,---,0.00,VWS V14.01,2013-06-16 15:10:00,
2013-06-16 08:15:00,61.5,56.6,30.08,East,89,0.0,1.0,84,0.00,,---,0.00,VWS V14.01,2013-06-16 15:15:00,
2013-06-16 08:20:00,61.7,56.5,30.08,East,89,0.0,2.0,83,0.00,,---,0.00,VWS V14.01,2013-06-16 15:20:00,
2013-06-16 08:25:00,61.7,56.5,30.08,SE,127,0.0,2.0,83,0.00,,---,0.00,VWS V14.01,2013-06-16 15:25:00,
2013-06-16 08:30:00,61.8,56.6,30.08,ENE,74,0.0,1.0,83,0.00,,---,0.00,VWS V14.01,2013-06-16 15:30:00,
2013-06-16 08:35:00,62.3,56.7,30.08,East,99,1.0,4.0,82,0.00,,---,0.00,VWS V14.01,2013-06-16 15:35:00,
2013-06-16 08:40:00,62.2,56.6,30.08,SSE,150,0.0,5.0,82,0.00,,---,0.00,VWS V14.01,2013-06-16 15:40:00,
2013-06-16 08:44:00,62.2,56.6,30.08,SE,134,1.0,5.0,82,0.00,,---,0.00,VWS V14.01,2013-06-16 15:44:00,
2013-06-16 08:49:00,62.3,56.4,30.08,ESE,102,0.0,5.0,81,0.00,,---,0.00,VWS V14.01,2013-06-16 15:49:00,
2013-06-16 08:54:00,62.4,56.5,30.08,SE,137,0.0,5.0,81,0.00,,---,0.00,VWS V14.01,2013-06-16 15:54:00,
2013-06-16 08:59:00,62.7,56.5,30.08,SE,144,2.0,6.0,80,0.00,,---,0.00,VWS V14.01,2013-06-16 15:59:00,
2013-06-16 09:04:00,62.8,56.9,30.09,SE,129,0.0,6.0,81,0.00,,---,0.00,VWS V14.01,2013-06-16 16:04:00,
2013-06-16 09:09:00,63.5,56.9,30.09,SSE,165,0.0,6.0,79,0.00,,---,0.00,VWS V14.01,2013-06-16 16:09:00,
2013-06-16 09:14:00,63.6,57.0,30.09,SE,126,1.0,6.0,79,0.00,,---,0.00,VWS V14.01,2013-06-16 16:14:00,
2013-06-16 09:19:00,64.3,57.7,30.08,West,260,3.0,6.0,79,0.00,,---,0.00,VWS V14.01,2013-06-16 16:19:00,
2013-06-16 09:24:00,64.9,57.2,30.08,SSW,196,0.0,6.0,76,0.00,,---,0.00,VWS V14.01,2013-06-16 16:24:00,
2013-06-16 09:29:00,65.2,57.5,30.08,SSW,194,0.0,0.0,76,0.00,,---,0.00,VWS V14.01,2013-06-16 16:29:00,
2013-06-16 09:34:00,66.5,58.3,30.08,SE,125,0.0,1.0,75,0.00,,---,0.00,VWS V14.01,2013-06-16 16:34:00,
2013-06-16 09:39:00,67.7,58.4,30.08,SSE,167,4.0,5.0,72,0.00,,---,0.00,VWS V14.01,2013-06-16 16:39:00,
2013-06-16 09:44:00,67.7,57.6,30.08,SE,137,2.0,6.0,70,0.00,,---,0.00,VWS V14.01,2013-06-16 16:44:00,
2013-06-16 09:49:00,67.4,58.1,30.08,SSW,207,0.0,6.0,72,0.00,,---,0.00,VWS V14.01,2013-06-16 16:49:00,
2013-06-16 09:54:00,67.5,57.8,30.08,SE,143,0.0,6.0,71,0.00,,---,0.00,VWS V14.01,2013-06-16 16:54:00,
2013-06-16 09:59:00,67.0,57.3,30.07,SE,128,2.0,5.0,71,0.00,,---,0.00,VWS V14.01,2013-06-16 16:59:00,
2013-06-16 10:04:00,67.1,58.2,30.07,SW,232,1.0,6.0,73,0.00,,---,0.00,VWS V14.01,2013-06-16 17:04:00,
2013-06-16 10:09:00,67.8,58.5,30.07,SE,126,0.0,6.0,72,0.00,,---,0.00,VWS V14.01,2013-06-16 17:09:00,
2013-06-16 10:14:00,68.5,58.3,30.07,South,191,4.0,6.0,70,0.00,,---,0.00,VWS V14.01,2013-06-16 17:14:00,
2013-06-16 10:19:00,68.1,58.0,30.07,ESE,122,6.0,6.0,70,0.00,,---,0.00,VWS V14.01,2013-06-16 17:19:00,
2013-06-16 10:24:00,68.5,57.9,30.07,SSE,160,1.0,6.0,69,0.00,,---,0.00,VWS V14.01,2013-06-16 17:24:00,
2013-06-16 10:29:00,68.6,58.4,30.06,ENE,61,0.0,1.0,70,0.00,,---,0.00,VWS V14.01,2013-06-16 17:29:00,
2013-06-16 10:34:00,69.8,58.4,30.07,SW,226,3.0,8.0,67,0.00,,---,0.00,VWS V14.01,2013-06-16 17:34:00,
2013-06-16 10:39:00,70.0,58.5,30.07,SSE,165,2.0,8.0,67,0.00,,---,0.00,VWS V14.01,2013-06-16 17:39:00,
2013-06-16 10:44:00,70.2,58.7,30.07,South,175,6.0,8.0,67,0.00,,---,0.00,VWS V14.01,2013-06-16 17:44:00,
2013-06-16 10:49:00,70.1,58.2,30.07,NW,314,1.0,8.0,66,0.00,,---,0.00,VWS V14.01,2013-06-16 17:49:00,
2013-06-16 10:54:00,69.9,58.5,30.07,SSE,155,5.0,8.0,67,0.00,,---,0.00,VWS V14.01,2013-06-16 17:54:00,
2013-06-16 10:59:00,69.9,58.5,30.07,South,185,2.0,4.0,67,0.00,,---,0.00,VWS V14.01,2013-06-16 17:59:00,
2013-06-16 11:04:00,70.5,58.6,30.07,WNW,286,1.0,7.0,66,0.00,,---,0.00,VWS V14.01,2013-06-16 18:04:00,
2013-06-16 11:09:00,70.9,59.0,30.07,WSW,249,0.0,7.0,66,0.00,,---,0.00,VWS V14.01,2013-06-16 18:09:00,
2013-06-16 11:14:00,71.6,58.3,30.06,ESE,107,9.0,11.0,63,0.00,,---,0.00,VWS V14.01,2013-06-16 18:14:00,
2013-06-16 11:19:00,71.0,57.8,30.06,SE,144,0.0,11.0,63,0.00,,---,0.00,VWS V14.01,2013-06-16 18:19:00,
2013-06-16 11:24:00,71.2,58.0,30.06,SE,126,1.0,11.0,63,0.00,,---,0.00,VWS V14.01,2013-06-16 18:24:00,
2013-06-16 11:29:00,71.9,58.6,30.06,NE,51,1.0,3.0,63,0.00,,---,0.00,VWS V14.01,2013-06-16 18:29:00,
2013-06-16 11:34:00,72.6,58.4,30.06,SSE,160,5.0,6.0,61,0.00,,---,0.00,VWS V14.01,2013-06-16 18:34:00,
2013-06-16 11:39:00,72.3,57.7,30.06,WSW,245,1.0,7.0,60,0.00,,---,0.00,VWS V14.01,2013-06-16 18:39:00,
2013-06-16 11:44:00,72.5,57.8,30.06,SSE,166,0.0,7.0,60,0.00,,---,0.00,VWS V14.01,2013-06-16 18:44:00,
2013-06-16 11:49:00,73.2,58.0,30.05,NW,319,0.0,7.0,59,0.00,,---,0.00,VWS V14.01,2013-06-16 18:49:00,
2013-06-16 11:54:00,73.8,58.6,30.05,ENE,74,1.0,7.0,59,0.00,,---,0.00,VWS V14.01,2013-06-16 18:54:00,
2013-06-16 11:59:00,74.4,58.2,30.05,SE,144,0.0,2.0,57,0.00,,---,0.00,VWS V14.01,2013-06-16 18:59:00,
2013-06-16 12:04:00,74.3,58.1,30.05,WNW,296,0.0,5.0,57,0.00,,---,0.00,VWS V14.01,2013-06-16 19:04:00,
2013-06-16 12:09:00,75.1,58.8,30.05,WNW,290,4.0,6.0,57,0.00,,---,0.00,VWS V14.01,2013-06-16 19:09:00,
2013-06-16 12:14:00,75.8,58.0,30.05,SSW,205,4.0,6.0,54,0.00,,---,0.00,VWS V14.01,2013-06-16 19:14:00,
2013-06-16 12:19:00,75.6,57.8,30.05,South,190,1.0,6.0,54,0.00,,---,0.00,VWS V14.01,2013-06-16 19:19:00,
2013-06-16 12:24:00,75.8,58.0,30.05,West,261,0.0,6.0,54,0.00,,---,0.00,VWS V14.01,2013-06-16 19:24:00,
2013-06-16 12:29:00,76.5,58.1,30.05,South,171,2.0,3.0,53,0.00,,---,0.00,VWS V14.01,2013-06-16 19:29:00,
2013-06-16 12:34:00,76.6,58.2,30.05,South,171,1.0,7.0,53,0.00,,---,0.00,VWS V14.01,2013-06-16 19:34:00,
2013-06-16 12:39:00,77.2,58.2,30.04,WNW,298,3.0,7.0,52,0.00,,---,0.00,VWS V14.01,2013-06-16 19:39:00,
2013-06-16 12:44:00,77.2,57.7,30.04,SSE,153,1.0,7.0,51,0.00,,---,0.00,VWS V14.01,2013-06-16 19:44:00,
2013-06-16 12:49:00,76.8,56.8,30.04,SW,224,1.0,11.0,50,0.00,,---,0.00,VWS V14.01,2013-06-16 19:49:00,
2013-06-16 12:54:00,76.9,56.9,30.04,SSE,162,0.0,11.0,50,0.00,,---,0.00,VWS V14.01,2013-06-16 19:54:00,
2013-06-16 12:59:00,78.0,57.3,30.03,SSE,159,4.0,4.0,49,0.00,,---,0.00,VWS V14.01,2013-06-16 19:59:00,
2013-06-16 13:04:00,78.3,57.0,30.03,SE,141,1.0,7.0,48,0.00,,---,0.00,VWS V14.01,2013-06-16 20:04:00,
2013-06-16 13:09:00,78.7,56.2,30.03,WSW,252,0.0,7.0,46,0.00,,---,0.00,VWS V14.01,2013-06-16 20:09:00,
2013-06-16 13:14:00,78.9,55.8,30.03,South,169,2.0,7.0,45,0.00,,---,0.00,VWS V14.01,2013-06-16 20:14:00,
2013-06-16 13:19:00,78.4,55.9,30.03,ESE,112,1.0,7.0,46,0.00,,---,0.00,VWS V14.01,2013-06-16 20:19:00,
2013-06-16 13:24:00,78.6,55.5,30.03,East,95,0.0,7.0,45,0.00,,---,0.00,VWS V14.01,2013-06-16 20:24:00,
2013-06-16 13:29:00,78.9,58.1,30.03,ESE,113,0.0,4.0,49,0.00,,---,0.00,VWS V14.01,2013-06-16 20:29:00,
2013-06-16 13:34:00,79.6,58.8,30.03,SW,222,0.0,7.0,49,0.00,,---,0.00,VWS V14.01,2013-06-16 20:34:00,
2013-06-16 13:39:00,79.3,59.1,30.03,SSE,163,1.0,11.0,50,0.00,,---,0.00,VWS V14.01,2013-06-16 20:39:00,
2013-06-16 13:44:00,79.2,59.0,30.02,WSW,240,5.0,11.0,50,0.00,,---,0.00,VWS V14.01,2013-06-16 20:44:00,
2013-06-16 13:49:00,78.5,59.4,30.02,SSW,200,4.0,11.0,52,0.00,,---,0.00,VWS V14.01,2013-06-16 20:49:00,
2013-06-16 13:54:00,78.7,59.1,30.02,SSW,207,3.0,11.0,51,0.00,,---,0.00,VWS V14.01,2013-06-16 20:54:00,
2013-06-16 13:59:00,78.7,59.1,30.02,ESE,123,0.0,9.0,51,0.00,,---,0.00,VWS V14.01,2013-06-16 20:59:00,
2013-06-16 14:04:00,78.9,59.2,30.02,WSW,241,2.0,9.0,51,0.00,,---,0.00,VWS V14.01,2013-06-16 21:04:00,
2013-06-16 14:09:00,78.5,58.9,30.02,SW,236,0.0,9.0,51,0.00,,---,0.00,VWS V14.01,2013-06-16 21:09:00,
2013-06-16 14:14:00,78.2,59.2,30.02,SSW,201,2.0,9.0,52,0.00,,---,0.00,VWS V14.01,2013-06-16 21:14:00,
2013-06-16 14:19:00,78.4,59.3,30.02,SSW,205,0.0,9.0,52,0.00,,---,0.00,VWS V14.01,2013-06-16 21:19:00,
2013-06-16 14:24:00,78.8,59.7,30.02,WNW,295,3.0,10.0,52,0.00,,---,0.00,VWS V14.01,2013-06-16 21:24:00,
2013-06-16 14:29:00,78.7,59.6,30.02,ESE,121,5.0,6.0,52,0.00,,---,0.00,VWS V14.01,2013-06-16 21:29:00,
2013-06-16 14:34:00,77.7,59.2,30.02,SE,126,7.0,11.0,53,0.00,,---,0.00,VWS V14.01,2013-06-16 21:34:00,
2013-06-16 14:39:00,77.5,59.0,30.02,WSW,251,3.0,11.0,53,0.00,,---,0.00,VWS V14.01,2013-06-16 21:39:00,
2013-06-16 14:44:00,78.3,60.3,30.02,SSW,212,0.0,11.0,54,0.00,,---,0.00,VWS V14.01,2013-06-16 21:44:00,
2013-06-16 14:49:00,78.9,59.8,30.02,SW,219,4.0,11.0,52,0.00,,---,0.00,VWS V14.01,2013-06-16 21:49:00,
2013-06-16 14:54:00,78.7,59.6,30.02,SSE,163,0.0,11.0,52,0.00,,---,0.00,VWS V14.01,2013-06-16 21:54:00,
2013-06-16 14:59:00,78.7,59.6,30.02,SSW,195,0.0,4.0,52,0.00,,---,0.00,VWS V14.01,2013-06-16 21:59:00,
2013-06-16 15:04:00,79.1,59.4,30.01,SSW,193,4.0,8.0,51,0.00,,---,0.00,VWS V14.01,2013-06-16 22:04:00,
2013-06-16 15:09:00,78.5,58.9,30.01,SE,139,4.0,8.0,51,0.00,,---,0.00,VWS V14.01,2013-06-16 22:09:00,
2013-06-16 15:14:00,78.2,59.2,30.02,South,176,0.0,13.0,52,0.00,,---,0.00,VWS V14.01,2013-06-16 22:14:00,
2013-06-16 15:19:00,77.9,58.9,30.01,SSE,148,0.0,13.0,52,0.00,,---,0.00,VWS V14.01,2013-06-16 22:19:00,
2013-06-16 15:24:00,78.5,60.0,30.01,SSW,198,7.0,13.0,53,0.00,,---,0.00,VWS V14.01,2013-06-16 22:24:00,
2013-06-16 15:29:00,78.4,59.3,30.01,South,181,1.0,5.0,52,0.00,,---,0.00,VWS V14.01,2013-06-16 22:29:00,
2013-06-16 15:34:00,78.7,59.1,30.01,WNW,302,1.0,7.0,51,0.00,,---,0.00,VWS V14.01,2013-06-16 22:34:00,
2013-06-16 15:39:00,79.3,59.6,30.01,ESE,119,0.0,8.0,51,0.00,,---,0.00,VWS V14.01,2013-06-16 22:39:00,
2013-06-16 15:44:00,80.2,59.3,30.01,SSW,200,2.0,8.0,49,0.00,,---,0.00,VWS V14.01,2013-06-16 22:44:00,
2013-06-16 15:49:00,80.0,59.1,30.01,SSE,165,0.0,8.0,49,0.00,,---,0.00,VWS V14.01,2013-06-16 22:49:00,
2013-06-16 15:54:00,80.1,59.2,30.01,West,274,6.0,8.0,49,0.00,,---,0.00,VWS V14.01,2013-06-16 22:54:00,
2013-06-16 15:59:00,80.3,59.4,30.01,West,268,1.0,4.0,49,0.00,,---,0.00,VWS V14.01,2013-06-16 22:59:00,
2013-06-16 16:04:00,80.0,59.7,30.00,SSW,196,0.0,9.0,50,0.00,,---,0.00,VWS V14.01,2013-06-16 23:04:00,
2013-06-16 16:09:00,79.1,59.4,30.00,SSE,147,7.0,9.0,51,0.00,,---,0.00,VWS V14.01,2013-06-16 23:09:00,
2013-06-16 16:14:00,78.2,59.2,30.00,SSE,166,2.0,13.0,52,0.00,,---,0.00,VWS V14.01,2013-06-16 23:14:00,
2013-06-16 16:19:00,78.2,59.7,30.00,South,172,9.0,13.0,53,0.00,,---,0.00,VWS V14.01,2013-06-16 23:19:00,
2013-06-16 16:24:00,78.6,60.1,30.00,South,177,1.0,13.0,53,0.00,,---,0.00,VWS V14.01,2013-06-16 23:24:00,
2013-06-16 16:29:00,79.4,59.2,30.00,SSE,167,6.0,7.0,50,0.00,,---,0.00,VWS V14.01,2013-06-16 23:29:00,
2013-06-16 16:34:00,79.2,59.0,30.00,North,355,1.0,7.0,50,0.00,,---,0.00,VWS V14.01,2013-06-16 23:34:00,
2013-06-16 16:39:00,78.9,58.7,30.00,WSW,255,0.0,7.0,50,0.00,,---,0.00,VWS V14.01,2013-06-16 23:39:00,
2013-06-16 16:44:00,78.5,58.3,30.00,WSW,252,0.0,8.0,50,0.00,,---,0.00,VWS V14.01,2013-06-16 23:44:00,
2013-06-16 16:49:00,78.6,58.4,30.00,South,190,1.0,8.0,50,0.00,,---,0.00,VWS V14.01,2013-06-16 23:49:00,
2013-06-16 16:54:00,78.1,58.5,30.00,SSW,202,0.0,8.0,51,0.00,,---,0.00,VWS V14.01,2013-06-16 23:54:00,
2013-06-16 16:59:00,78.4,58.8,29.99,NE,41,0.0,4.0,51,0.00,,---,0.00,VWS V14.01,2013-06-16 23:59:00,
2013-06-16 17:04:00,78.7,58.5,29.99,West,261,2.0,8.0,50,0.00,,---,0.00,VWS V14.01,2013-06-17 00:04:00,
2013-06-16 17:09:00,78.4,58.2,29.99,SW,224,5.0,8.0,50,0.00,,---,0.00,VWS V14.01,2013-06-17 00:09:00,
2013-06-16 17:14:00,78.0,58.4,29.99,NNW,343,1.0,8.0,51,0.00,,---,0.00,VWS V14.01,2013-06-17 00:14:00,
2013-06-16 17:19:00,78.0,58.4,29.99,SW,217,0.0,8.0,51,0.00,,---,0.00,VWS V14.01,2013-06-17 00:19:00,
2013-06-16 17:24:00,77.9,58.3,29.99,WSW,247,0.0,8.0,51,0.00,,---,0.00,VWS V14.01,2013-06-17 00:24:00,
2013-06-16 17:29:00,77.7,58.2,29.99,NW,317,0.0,1.0,51,0.00,,---,0.00,VWS V14.01,2013-06-17 00:29:00,
2013-06-16 17:34:00,77.8,58.2,29.99,South,189,1.0,7.0,51,0.00,,---,0.00,VWS V14.01,2013-06-17 00:34:00,
2013-06-16 17:39:00,77.8,58.2,29.99,WSW,245,1.0,7.0,51,0.00,,---,0.00,VWS V14.01,2013-06-17 00:39:00,
2013-06-16 17:44:00,77.8,57.7,29.99,WNW,282,0.0,7.0,50,0.00,,---,0.00,VWS V14.01,2013-06-17 00:44:00,
2013-06-16 17:49:00,77.7,58.2,29.99,NW,326,0.0,7.0,51,0.00,,---,0.00,VWS V14.01,2013-06-17 00:49:00,
2013-06-16 17:54:00,77.9,58.3,29.99,WNW,282,1.0,7.0,51,0.00,,---,0.00,VWS V14.01,2013-06-17 00:54:00,
2013-06-16 17:59:00,77.7,57.6,29.99,WNW,298,2.0,3.0,50,0.00,,---,0.00,VWS V14.01,2013-06-17 00:59:00,
2013-06-16 18:04:00,77.1,57.6,29.99,SW,225,0.0,5.0,51,0.00,,---,0.00,VWS V14.01,2013-06-17 01:04:00,
2013-06-16 18:09:00,76.9,58.0,29.99,West,277,1.0,7.0,52,0.00,,---,0.00,VWS V14.01,2013-06-17 01:09:00,
2013-06-16 18:14:00,76.5,57.6,29.99,West,278,0.0,7.0,52,0.00,,---,0.00,VWS V14.01,2013-06-17 01:14:00,
2013-06-16 18:19:00,76.3,57.9,29.99,SE,128,0.0,7.0,53,0.00,,---,0.00,VWS V14.01,2013-06-17 01:19:00,
2013-06-16 18:24:00,76.1,57.8,29.99,West,277,0.0,7.0,53,0.00,,---,0.00,VWS V14.01,2013-06-17 01:24:00,
2013-06-16 18:29:00,76.0,58.2,29.99,West,277,0.0,0.0,54,0.00,,---,0.00,VWS V14.01,2013-06-17 01:29:00,
2013-06-16 18:34:00,75.8,58.0,29.99,NNW,327,1.0,4.0,54,0.00,,---,0.00,VWS V14.01,2013-06-17 01:34:00,
2013-06-16 18:39:00,75.2,57.9,29.99,SSW,196,0.0,7.0,55,0.00,,---,0.00,VWS V14.01,2013-06-17 01:39:00,
2013-06-16 18:44:00,74.3,57.6,30.00,WNW,285,0.0,7.0,56,0.00,,---,0.00,VWS V14.01,2013-06-17 01:44:00,
2013-06-16 18:49:00,73.7,58.0,30.00,NNW,345,0.0,7.0,58,0.00,,---,0.00,VWS V14.01,2013-06-17 01:49:00,
2013-06-16 18:54:00,73.3,58.1,30.00,West,279,0.0,7.0,59,0.00,,---,0.00,VWS V14.01,2013-06-17 01:54:00,
2013-06-16 18:59:00,72.6,57.5,30.00,WNW,283,0.0,1.0,59,0.00,,---,0.00,VWS V14.01,2013-06-17 01:59:00,
2013-06-16 19:04:00,72.1,57.9,30.00,SSW,195,1.0,4.0,61,0.00,,---,0.00,VWS V14.01,2013-06-17 02:04:00,
2013-06-16 19:09:00,71.5,57.8,30.00,NNW,345,0.0,5.0,62,0.00,,---,0.00,VWS V14.01,2013-06-17 02:09:00,
2013-06-16 19:14:00,71.0,57.8,30.00,WNW,284,0.0,5.0,63,0.00,,---,0.00,VWS V14.01,2013-06-17 02:14:00,
2013-06-16 19:19:00,70.6,57.8,30.00,South,190,1.0,5.0,64,0.00,,---,0.00,VWS V14.01,2013-06-17 02:19:00,
2013-06-16 19:24:00,70.2,57.5,30.00,NW,311,0.0,5.0,64,0.00,,---,0.00,VWS V14.01,2013-06-17 02:24:00,
2013-06-16 19:29:00,69.9,57.6,30.00,WNW,287,0.0,0.0,65,0.00,,---,0.00,VWS V14.01,2013-06-17 02:29:00,
2013-06-16 19:34:00,69.6,57.8,30.00,West,279,0.0,1.0,66,0.00,,---,0.00,VWS V14.01,2013-06-17 02:34:00,
2013-06-16 19:39:00,69.3,57.5,30.00,SSW,206,0.0,1.0,66,0.00,,---,0.00,VWS V14.01,2013-06-17 02:39:00,
2013-06-16 19:44:00,69.0,57.6,30.00,SW,232,0.0,1.0,67,0.00,,---,0.00,VWS V14.01,2013-06-17 02:44:00,
2013-06-16 19:49:00,68.6,57.6,30.00,West,271,0.0,1.0,68,0.00,,---,0.00,VWS V14.01,2013-06-17 02:49:00,
2013-06-16 19:54:00,68.3,57.3,30.00,West,271,0.0,1.0,68,0.00,,---,0.00,VWS V14.01,2013-06-17 02:54:00,
2013-06-16 19:59:00,67.9,57.4,30.00,West,271,0.0,0.0,69,0.00,,---,0.00,VWS V14.01,2013-06-17 02:59:00,
2013-06-16 20:04:00,67.6,57.1,30.00,West,271,0.0,0.0,69,0.00,,---,0.00,VWS V14.01,2013-06-17 03:04:00,
2013-06-16 20:09:00,67.3,57.2,30.00,SW,229,0.0,1.0,70,0.00,,---,0.00,VWS V14.01,2013-06-17 03:09:00,
2013-06-16 20:14:00,67.1,57.4,30.00,SW,235,0.0,1.0,71,0.00,,---,0.00,VWS V14.01,2013-06-17 03:14:00,
2013-06-16 20:19:00,66.8,57.1,30.00,SW,236,0.0,1.0,71,0.00,,---,0.00,VWS V14.01,2013-06-17 03:19:00,
2013-06-16 20:24:00,66.6,57.3,30.00,SSW,205,0.0,1.0,72,0.00,,---,0.00,VWS V14.01,2013-06-17 03:24:00,
2013-06-16 20:29:00,66.3,57.0,30.00,SSW,205,0.0,0.0,72,0.00,,---,0.00,VWS V14.01,2013-06-17 03:29:00,
2013-06-16 20:34:00,66.0,57.1,30.00,SSW,205,0.0,0.0,73,0.00,,---,0.00,VWS V14.01,2013-06-17 03:34:00,
2013-06-16 20:39:00,65.8,56.9,30.00,SSW,205,0.0,0.0,73,0.00,,---,0.00,VWS V14.01,2013-06-17 03:39:00,
2013-06-16 20:44:00,65.6,57.1,30.00,SSW,205,0.0,0.0,74,0.00,,---,0.00,VWS V14.01,2013-06-17 03:44:00,
2013-06-16 20:49:00,65.3,56.8,30.00,SSW,205,0.0,0.0,74,0.00,,---,0.00,VWS V14.01,2013-06-17 03:49:00,
2013-06-16 20:54:00,65.1,57.0,30.00,SSW,205,0.0,0.0,75,0.00,,---,0.00,VWS V14.01,2013-06-17 03:54:00,
2013-06-16 20:59:00,64.9,56.8,30.00,SSW,205,0.0,0.0,75,0.00,,---,0.00,VWS V14.01,2013-06-17 03:59:00,
2013-06-16 21:01:00,64.8,56.7,30.00,SSW,205,0.0,0.0,75,0.00,,---,0.00,VWS V14.01,2013-06-17 04:01:00,
2013-06-16 21:06:00,64.5,56.8,30.00,SSW,205,0.0,0.0,76,0.00,,---,0.00,VWS V14.01,2013-06-17 04:06:00,
2013-06-16 21:11:00,64.3,56.6,30.00,SSW,205,0.0,0.0,76,0.00,,---,0.00,VWS V14.01,2013-06-17 04:11:00,
2013-06-16 21:16:00,64.1,56.8,30.00,SSW,205,0.0,0.0,77,0.00,,---,0.00,VWS V14.01,2013-06-17 04:16:00,
2013-06-16 21:21:00,63.9,56.6,30.00,SSW,205,0.0,0.0,77,0.00,,---,0.00,VWS V14.01,2013-06-17 04:21:00,
2013-06-16 21:26:00,63.7,56.7,30.00,SSW,205,0.0,0.0,78,0.00,,---,0.00,VWS V14.01,2013-06-17 04:26:00,
2013-06-16 21:31:00,63.6,56.6,30.01,SSW,205,0.0,0.0,78,0.00,,---,0.00,VWS V14.01,2013-06-17 04:31:00,
2013-06-16 21:36:00,63.4,56.8,30.01,SSW,205,0.0,0.0,79,0.00,,---,0.00,VWS V14.01,2013-06-17 04:36:00,
2013-06-16 21:41:00,63.2,56.6,30.01,SSW,205,0.0,0.0,79,0.00,,---,0.00,VWS V14.01,2013-06-17 04:41:00,
2013-06-16 21:46:00,63.1,56.8,30.01,SSW,205,0.0,0.0,80,0.00,,---,0.00,VWS V14.01,2013-06-17 04:46:00,
2013-06-16 21:51:00,63.0,56.7,30.01,SSW,205,0.0,0.0,80,0.00,,---,0.00,VWS V14.01,2013-06-17 04:51:00,
2013-06-16 21:56:00,62.8,56.5,30.01,SSW,205,0.0,0.0,80,0.00,,---,0.00,VWS V14.01,2013-06-17 04:56:00,
2013-06-16 22:01:00,62.7,56.8,30.01,SSW,205,0.0,0.0,81,0.00,,---,0.00,VWS V14.01,2013-06-17 05:01:00,
2013-06-16 22:06:00,62.5,56.6,30.01,SSW,205,0.0,0.0,81,0.00,,---,0.00,VWS V14.01,2013-06-17 05:06:00,
2013-06-16 22:11:00,62.3,56.4,30.01,SSW,205,0.0,0.0,81,0.00,,---,0.00,VWS V14.01,2013-06-17 05:11:00,
2013-06-16 22:16:00,62.0,56.1,30.01,SSW,205,0.0,0.0,81,0.00,,---,0.00,VWS V14.01,2013-06-17 05:16:00,
2013-06-16 22:21:00,61.8,56.2,30.01,SSW,205,0.0,0.0,82,0.00,,---,0.00,VWS V14.01,2013-06-17 05:21:00,
2013-06-16 22:26:00,61.5,56.0,30.01,SSW,205,0.0,0.0,82,0.00,,---,0.00,VWS V14.01,2013-06-17 05:26:00,
2013-06-16 22:31:00,61.3,56.1,30.01,SSW,205,0.0,0.0,83,0.00,,---,0.00,VWS V14.01,2013-06-17 05:31:00,
2013-06-16 22:36:00,61.1,56.2,30.01,SSW,205,0.0,0.0,84,0.00,,---,0.00,VWS V14.01,2013-06-17 05:36:00,
2013-06-16 22:41:00,60.9,56.4,30.01,SSW,205,0.0,0.0,85,0.00,,---,0.00,VWS V14.01,2013-06-17 05:41:00,
2013-06-16 22:46:00,60.7,55.8,30.01,SSW,205,0.0,0.0,84,0.00,,---,0.00,VWS V14.01,2013-06-17 05:46:00,
2013-06-16 22:51:00,60.4,55.5,30.01,SSW,205,0.0,0.0,84,0.00,,---,0.00,VWS V14.01,2013-06-17 05:51:00,
2013-06-16 22:56:00,60.2,55.3,30.01,SSW,205,0.0,0.0,84,0.00,,---,0.00,VWS V14.01,2013-06-17 05:56:00,
2013-06-16 23:01:00,59.9,55.1,30.01,SSW,205,0.0,0.0,84,0.00,,---,0.00,VWS V14.01,2013-06-17 06:01:00,
2013-06-16 23:06:00,59.7,55.2,30.01,SSW,205,0.0,0.0,85,0.00,,---,0.00,VWS V14.01,2013-06-17 06:06:00,
2013-06-16 23:11:00,59.5,55.3,30.01,SSW,205,0.0,0.0,86,0.00,,---,0.00,VWS V14.01,2013-06-17 06:11:00,
2013-06-16 23:16:00,59.4,55.5,30.01,SSW,205,0.0,0.0,87,0.00,,---,0.00,VWS V14.01,2013-06-17 06:16:00,
2013-06-16 23:21:00,59.3,55.4,30.01,SSW,205,0.0,0.0,87,0.00,,---,0.00,VWS V14.01,2013-06-17 06:21:00,
2013-06-16 23:26:00,59.3,55.4,30.01,SSW,205,0.0,0.0,87,0.00,,---,0.00,VWS V14.01,2013-06-17 06:26:00,
2013-06-16 23:31:00,59.1,55.2,30.01,SSW,205,0.0,0.0,87,0.00,,---,0.00,VWS V14.01,2013-06-17 06:31:00,
2013-06-16 23:36:00,59.1,55.5,30.01,SSW,205,0.0,0.0,88,0.00,,---,0.00,VWS V14.01,2013-06-17 06:36:00,
2013-06-16 23:41:00,59.1,55.5,30.01,SSW,205,0.0,0.0,88,0.00,,---,0.00,VWS V14.01,2013-06-17 06:41:00,
2013-06-16 23:46:00,59.0,55.8,30.01,SSW,205,0.0,0.0,89,0.00,,---,0.00,VWS V14.01,2013-06-17 06:46:00,
2013-06-16 23:51:00,58.9,55.4,30.01,SSW,205,0.0,0.0,88,0.00,,---,0.00,VWS V14.01,2013-06-17 06:51:00,
2013-06-16 23:56:00,58.8,55.3,30.00,SSW,205,0.0,0.0,88,0.00,,---,0.00,VWS V14.01,2013-06-17 06:56:00,